CST,Max TemperatureF,Mean TemperatureF,Min TemperatureF,Max Dew PointF,MeanDew PointF,Min DewpointF,Max Humidity, Mean Humidity, Min Humidity, Max Sea Level PressureIn, Mean Sea Level PressureIn, Min Sea Level PressureIn, Max VisibilityMiles, Mean VisibilityMiles, Min VisibilityMiles, Max Wind SpeedMPH, Mean Wind SpeedMPH, Max Gust SpeedMPH,PrecipitationIn, CloudCover, Events, WindDirDegrees
2013-11-1,46,34,21,41,29,21,100,88,66,29.90,29.65,29.45,10,8,4,16,3,21,0.00,2,,306
2013-11-2,50,34,19,37,28,18,100,87,58,30.03,29.98,29.90,10,8,0,8,2,,0.00,2,Fog,191
2013-11-3,51,42,33,34,32,30,93,66,44,29.98,29.82,29.70,10,10,10,22,11,32,0.00,3,,137
2013-11-4,46,35,24,36,28,18,87,73,60,30.04,29.81,29.68,10,10,7,20,12,28,0.00,4,Rain-Snow,219
2013-11-5,32,26,21,23,19,16,86,75,59,30.18,30.12,30.04,10,10,10,14,10,18,0.00,0,,228
2013-11-6,33,22,10,21,13,7,93,74,48,30.14,30.09,30.07,10,10,7,5,1,,0.00,2,,284
2013-11-7,33,22,12,21,16,9,100,81,48,30.19,30.15,30.09,10,10,10,12,2,10,0.00,2,,219
2013-11-8,37,27,17,30,25,16,100,85,60,30.09,29.80,29.58,10,8,2,22,7,32,0.02,5,Rain-Snow,130
2013-11-9,32,31,30,30,29,27,100,95,80,30.23,29.89,29.60,10,6,1,22,10,31,0.01,8,Snow,287
2013-11-10,33,22,10,30,21,3,100,86,63,30.32,30.20,30.11,10,9,1,23,10,26,0.00,4,Snow,263
2013-11-11,15,8,0,7,2,-4,92,78,62,30.71,30.56,30.33,10,9,2,16,11,21,0.00,4,Snow,329
2013-11-12,30,15,0,18,8,-4,92,72,55,30.70,30.50,30.18,10,10,10,20,9,24,0.00,0,,196
2013-11-13,46,34,23,37,27,16,93,78,61,30.17,29.88,29.77,10,10,10,22,15,31,0.00,1,,204
2013-11-14,44,36,28,36,30,27,100,87,66,29.81,29.76,29.71,10,10,7,14,4,,0.00,6,Rain,212
2013-11-15,50,37,24,41,32,23,100,83,54,29.75,29.63,29.42,10,8,0,24,9,33,0.01,4,Fog-Rain,180
2013-11-16,50,40,30,45,35,28,100,87,71,29.41,29.33,29.27,10,8,2,17,8,23,0.13,4,Rain,153
2013-11-17,37,29,21,36,27,18,100,93,80,29.86,29.53,29.29,10,8,0,22,13,30,0.12,8,Fog-Rain-Snow,305
2013-11-18,23,20,17,18,16,14,93,85,74,30.18,30.09,29.87,10,10,10,18,11,25,0.00,7,Snow,286
2013-11-19,42,30,17,32,24,16,93,77,61,30.15,29.83,29.59,10,10,10,28,13,39,0.00,0,,143
2013-11-20,42,30,19,30,26,18,100,84,61,30.11,29.85,29.61,10,8,2,22,13,31,0.00,4,,347
2013-11-21,19,10,0,18,7,-2,93,87,79,30.57,30.42,30.11,10,7,2,22,13,28,0.00,6,Snow,311
2013-11-22,15,6,-4,10,0,-8,92,81,62,30.72,30.53,30.40,10,8,2,18,11,25,0.00,4,Snow,268
2013-11-23,8,-2,-13,0,-8,-18,92,79,61,30.84,30.75,30.55,10,10,5,12,5,,0.00,1,Snow,240
2013-11-24,33,18,3,27,13,0,86,72,62,30.53,30.02,29.73,10,10,10,30,16,37,0.00,3,,192
2013-11-25,32,24,15,25,21,12,93,84,68,30.11,29.94,29.75,10,8,1,25,12,34,0.00,8,Snow,289
2013-11-26,15,8,-2,10,4,-6,92,80,67,30.40,30.30,30.11,10,8,2,23,14,31,0.00,5,Snow,314
2013-11-27,15,5,-5,10,4,-9,92,82,73,30.39,30.14,29.98,10,9,1,13,3,17,0.00,5,Snow,142
2013-11-28,19,7,-5,12,4,-11,92,80,63,30.44,30.31,30.07,10,7,2,17,5,22,0.00,5,Snow,313
2013-11-29,28,13,-2,19,12,-6,92,76,59,30.43,30.20,29.97,10,10,10,18,7,23,0.00,2,,153
2013-11-30,24,20,17,19,18,16,100,90,80,30.20,30.09,29.96,10,7,3,12,7,,0.00,6,,311